H1 CPF 2 NER 2024 7 3 9 185 01 glonass142 H2 2001801 9142 45358 2024 7 3 0 0 0 2024 7 6 23 45 0 900 1 1 0 0 0 1 H9 10 0 60494 0.00000 0 15473141.316 20013511.475 -3353706.202 10 0 60494 900.00000 0 15725661.195 20098915.740 -149773.464 10 0 60494 1800.00000 0 15730504.377 19863453.910 3057066.236 10 0 60494 2700.00000 0 15448017.674 19345910.690 6204610.571 10 0 60494 3600.00000 0 14848563.183 18593880.845 9231824.692 10 0 60494 4500.00000 0 13913980.875 17661634.086 12080020.326 10 0 60494 5400.00000 0 12638580.513 16607718.967 14693988.149 10 0 60494 6300.00000 0 11029620.723 15492406.667 17023061.913 10 0 60494 7200.00000 0 9107254.446 14375081.979 19022094.221 10 0 60494 8100.00000 0 6903942.108 13311690.747 20652325.726 10 0 60494 9000.00000 0 4463355.824 12352350.368 21882131.628 10 0 60494 9900.00000 0 1838818.990 11539223.046 22687631.625 10 0 60494 10800.00000 0 -908655.328 10904740.411 23053152.079 10 0 60494 11700.00000 0 -3712647.259 10470253.497 22971531.739 10 0 60494 12600.00000 0 -6503841.026 10245164.401 22444265.157 10 0 60494 13500.00000 0 -9212661.153 10226576.044 21481480.751 10 0 60494 14400.00000 0 -11771925.926 10399474.911 20101753.397 10 0 60494 15300.00000 0 -14119408.971 10737439.565 18331754.344 10 0 60494 16200.00000 0 -16200203.335 11203845.738 16205744.262 10 0 60494 17100.00000 0 -17968790.223 11753517.948 13764918.154 10 0 60494 18000.00000 0 -19390726.395 12334758.638 11056613.866 10 0 60494 18900.00000 0 -20443879.862 12891669.689 8133398.655 10 0 60494 19800.00000 0 -21119162.082 13366668.405 5052050.994 10 0 60494 20700.00000 0 -21420725.868 13703091.472 1872457.109 10 0 60494 21600.00000 0 -21365620.638 13847776.158 -1343556.157 10 0 60494 22500.00000 0 -20982919.597 13753508.654 -4533429.096 10 0 60494 23400.00000 0 -20312355.863 13381234.749 -7635093.202 10 0 60494 24300.00000 0 -19402525.505 12701937.907 -10588186.898 10 0 60494 25200.00000 0 -18308733.950 11698103.853 -13335238.261 10 0 60494 26100.00000 0 -17090577.410 10364708.317 -15822790.804 10 0 60494 27000.00000 0 -15809362.180 8709684.872 -18002449.616 10 0 60494 27900.00000 0 -14525471.447 6753851.895 -19831826.977 10 0 60494 28800.00000 0 -13295791.220 4530300.703 -21275368.731 10 0 60494 29700.00000 0 -12171304.243 2083269.641 -22305045.332 10 0 60494 30600.00000 0 -11194953.257 -533449.379 -22900894.347 10 0 60494 31500.00000 0 -10399863.380 -3258505.807 -23051404.255 10 0 60494 32400.00000 0 -9807997.814 -6025303.988 -22753732.585 10 0 60494 33300.00000 0 -9429302.670 -8764539.308 -22013754.714 10 0 60494 34200.00000 0 -9261375.892 -11406851.655 -20845942.885 10 0 60494 35100.00000 0 -9289673.146 -13885486.261 -19273078.276 10 0 60494 36000.00000 0 -9488240.860 -16138851.763 -17325802.051 10 0 60494 36900.00000 0 -9820944.520 -18112869.676 -15042014.433 10 0 60494 37800.00000 0 -10243139.461 -19763018.310 -12466133.643 10 0 60494 38700.00000 0 -10703712.917 -21055986.952 -9648229.290 10 0 60494 39600.00000 0 -11147410.498 -21970872.409 -6643047.156 10 0 60494 40500.00000 0 -11517348.408 -22499869.219 -3508944.499 10 0 60494 41400.00000 0 -11757604.969 -22648425.975 -306756.625 10 0 60494 42300.00000 0 -11815781.786 -22434862.523 2901383.075 10 0 60494 43200.00000 0 -11645426.261 -21889465.334 6053246.669 10 0 60494 44100.00000 0 -11208213.082 -21053100.058 9087715.463 10 0 60494 45000.00000 0 -10475792.538 -19975400.346 11945960.723 10 0 60494 45900.00000 0 -9431227.539 -18712609.533 14572578.750 10 0 60494 46800.00000 0 -8069958.461 -17325166.000 16916658.713 10 0 60494 47700.00000 0 -6400254.648 -15875133.495 18932763.079 10 0 60494 48600.00000 0 -4443132.784 -14423583.818 20581802.343 10 0 60494 49500.00000 0 -2231744.360 -13028040.983 21831787.814 10 0 60494 50400.00000 0 189743.559 -11740093.237 22658448.527 10 0 60494 51300.00000 0 2767729.173 -10603272.121 23045700.893 10 0 60494 52200.00000 0 5441154.330 -9651286.636 22985962.301 10 0 60494 53100.00000 0 8143799.892 -8906685.818 22480302.665 10 0 60494 54000.00000 0 10806804.341 -8380005.319 21538430.709 10 0 60494 54900.00000 0 13361302.548 -8069433.519 20178514.711 10 0 60494 55800.00000 0 15741076.218 -7961011.224 18426840.341 10 0 60494 56700.00000 0 17885106.747 -8029356.754 16317311.265 10 0 60494 57600.00000 0 19739924.824 -8238886.256 13890801.065 10 0 60494 58500.00000 0 21261659.043 -8545478.201 11194368.082 10 0 60494 59400.00000 0 22417698.006 -8898512.150 8280347.535 10 0 60494 60300.00000 0 23187896.156 -9243195.761 5205337.937 10 0 60494 61200.00000 0 23565272.506 -9523081.506 2029101.249 10 0 60494 62100.00000 0 23556172.610 -9682666.106 -1186601.733 10 0 60494 63000.00000 0 23179886.786 -9669961.823 -4379217.766 10 0 60494 63900.00000 0 22467740.586 -9438929.603 -7486625.041 10 0 60494 64800.00000 0 21461696.017 -8951669.759 -10448349.929 10 0 60494 65700.00000 0 20212522.817 -8180275.961 -13206751.923 10 0 60494 66600.00000 0 18777617.442 -7108272.669 -15708152.767 10 0 60494 67500.00000 0 17218562.323 -5731573.815 -17903887.026 10 0 60494 68400.00000 0 15598528.865 -4058920.947 -19751253.095 10 0 60494 69300.00000 0 13979634.129 -2111781.183 -21214345.811 10 0 60494 70200.00000 0 12420362.749 76291.724 -22264754.452 10 0 60494 71100.00000 0 10973162.611 2460807.272 -22882112.757 10 0 60494 72000.00000 0 9682315.097 4987951.540 -23054490.640 10 0 60494 72900.00000 0 8582168.819 7596597.065 -22778620.511 10 0 60494 73800.00000 0 7695810.105 10220625.827 -22059954.344 10 0 60494 74700.00000 0 7034224.999 12791468.840 -20912550.905 10 0 60494 75600.00000 0 6595986.627 15240756.953 -19358795.797 10 0 60494 76500.00000 0 6367479.659 17502972.860 -17428960.132 10 0 60494 77400.00000 0 6323651.020 19517994.349 -15160606.698 10 0 60494 78300.00000 0 6429253.876 21233423.428 -12597855.356 10 0 60494 79200.00000 0 6640531.264 22606604.919 -9790522.099 10 0 60494 80100.00000 0 6907267.328 23606251.140 -6793148.675 10 0 60494 81000.00000 0 7175118.741 24213605.751 -3663941.738 10 0 60494 81900.00000 0 7388127.226 24423099.171 -463642.276 10 0 60494 82800.00000 0 7491306.592 24242469.184 2745652.586 10 0 60494 83700.00000 0 7433194.681 23692342.762 5901692.463 10 0 60494 84600.00000 0 7168262.263 22805297.571 8943277.928 10 0 60494 85500.00000 0 6659077.019 21624443.284 11811442.797 10 0 60495 0.00000 0 5878131.240 20201582.864 14450591.616 10 0 60495 900.00000 0 4809255.468 18595030.334 16809572.071 10 0 60495 1800.00000 0 3448559.226 16867178.387 18842658.627 10 0 60495 2700.00000 0 1804857.208 15081914.808 20510433.716 10 0 60495 3600.00000 0 -100436.988 13301997.068 21780546.527 10 0 60495 4500.00000 0 -2233946.788 11586493.395 22628336.832 10 0 60495 5400.00000 0 -4551473.164 9988396.487 23037312.064 10 0 60495 6300.00000 0 -6999593.905 8552508.630 22999468.752 10 0 60495 7200.00000 0 -9517656.800 7313685.762 22515452.136 10 0 60495 8100.00000 0 -12040085.574 6295513.131 21594550.638 10 0 60495 9000.00000 0 -14498904.272 5509467.367 20254524.737 10 0 60495 9900.00000 0 -16826376.432 4954599.751 18521272.761 10 0 60495 10800.00000 0 -18957650.274 4617753.782 16428339.060 10 0 60495 11700.00000 0 -20833300.397 4474307.911 14016273.034 10 0 60495 12600.00000 0 -22401660.251 4489412.286 11331850.419 10 0 60495 13500.00000 0 -23620847.914 4619667.477 8427171.059 10 0 60495 14400.00000 0 -24460400.137 4815174.300 5358650.065 10 0 60495 15300.00000 0 -24902445.648 5021867.911 2185921.699 10 0 60495 16200.00000 0 -24942367.921 5184036.947 -1029322.647 10 0 60495 17100.00000 0 -24588929.058 5246920.306 -4224539.404 10 0 60495 18000.00000 0 -23863849.170 5159270.552 -7337556.491 10 0 60495 18900.00000 0 -22800858.796 4875774.096 -10307791.054 10 0 60495 19800.00000 0 -21444264.299 4359224.284 -13077436.580 10 0 60495 20700.00000 0 -19847086.982 3582353.927 -15592595.337 10 0 60495 21600.00000 0 -18068854.628 2529248.373 -17804333.305 10 0 60495 22500.00000 0 -16173138.970 1196278.055 -19669636.511 10 0 60495 23400.00000 0 -14224943.086 -407490.011 -21152249.828 10 0 60495 24300.00000 0 -12288048.850 -2260420.182 -22223381.873 10 0 60495 25200.00000 0 -10422435.903 -4328971.125 -22862262.539 10 0 60495 26100.00000 0 -8681880.276 -6568866.653 -23056542.639 10 0 60495 27000.00000 0 -7111832.820 -8926726.038 -22802528.444 10 0 60495 27900.00000 0 -5747665.523 -11342086.112 -22105247.071 10 0 60495 28800.00000 0 -4613358.093 -13749731.079 -20978341.985 10 0 60495 29700.00000 0 -3720678.440 -16082233.153 -19443801.106 10 0 60495 30600.00000 0 -3068889.861 -18272598.405 -17531523.172 10 0 60495 31500.00000 0 -2644995.576 -20256907.772 -15278731.079 10 0 60495 32400.00000 0 -2424508.641 -21976843.485 -12729243.811 10 0 60495 33300.00000 0 -2372713.298 -23381995.962 -9932621.265 10 0 60495 34200.00000 0 -2446363.207 -24431855.368 -6943198.739 10 0 60495 35100.00000 0 -2595743.733 -25097405.290 -3819030.003 10 0 60495 36000.00000 0 -2767010.307 -25362252.621 -620759.574 10 0 60495 36900.00000 0 -2904703.341 -25223247.162 2589553.710 10 0 60495 37800.00000 0 -2954332.986 -24690565.790 5749638.917 10 0 60495 38700.00000 0 -2864924.174 -23787258.444 8798217.717 10 0 60495 39600.00000 0 -2591414.269 -22548275.570 11676188.238 10 0 60495 40500.00000 0 -2096801.996 -21019018.237 14327765.409 10 0 60495 41400.00000 0 -1353956.813 -19253471.820 16701556.093 10 0 60495 42300.00000 0 -347012.254 -17312001.315 18751548.735 10 0 60495 43200.00000 0 927715.898 -15258900.130 20437999.008 10 0 60495 44100.00000 0 2461325.927 -13159794.122 21728195.077 10 0 60495 45000.00000 0 4232458.980 -11079008.483 22597088.280 10 0 60495 45900.00000 0 6207956.327 -9077006.325 23027777.620 10 0 60495 46800.00000 0 8344019.235 -7208004.737 23011839.005 10 0 60495 47700.00000 0 10587824.788 -5517866.719 22549492.948 10 0 60495 48600.00000 0 12879532.075 -4042355.973 21649607.228 10 0 60495 49500.00000 0 15154596.904 -2805826.586 20329533.920 10 0 60495 50400.00000 0 17346300.027 -1820401.780 18614783.136 10 0 60495 51300.00000 0 19388384.756 -1085675.633 16538538.808 10 0 60495 52200.00000 0 21217694.740 -588950.028 14141024.801 10 0 60495 53100.00000 0 22776702.163 -305996.722 11468732.633 10 0 60495 54000.00000 0 24015820.672 -202312.354 8573524.901 10 0 60495 54900.00000 0 24895405.854 -234813.346 5511631.186 10 0 60495 55800.00000 0 25387358.783 -353898.834 2342555.664 10 0 60495 56700.00000 0 25476264.542 -505793.953 -872082.269 10 0 60495 57600.00000 0 25160017.116 -635073.595 -4069751.445 10 0 60495 58500.00000 0 24449903.649 -687258.782 -7188232.296 10 0 60495 59400.00000 0 23370143.977 -611374.539 -10166835.482 10 0 60495 60300.00000 0 21956904.541 -362359.572 -12947591.099 10 0 60495 61200.00000 0 20256828.066 96775.656 -15476384.358 10 0 60495 62100.00000 0 18325141.064 793135.133 -17704014.848 10 0 60495 63000.00000 0 16223418.928 1742545.808 -19587158.176 10 0 60495 63900.00000 0 14017102.878 2948648.285 -21089210.949 10 0 60495 64800.00000 0 11772873.225 4402509.107 -22181002.583 10 0 60495 65700.00000 0 9555989.174 6082771.818 -22841360.316 10 0 60495 66600.00000 0 7427706.512 7956341.148 -23057516.770 10 0 60495 67500.00000 0 5442880.850 9979572.218 -22825352.665 10 0 60495 68400.00000 0 3647855.925 12099915.392 -22149470.503 10 0 60495 69300.00000 0 2078724.260 14257948.289 -21043098.307 10 0 60495 70200.00000 0 760031.583 16389710.277 -19527825.776 10 0 60495 71100.00000 0 -296022.396 18429242.176 -17633178.325 10 0 60495 72000.00000 0 -1089855.089 20311225.243 -15396037.620 10 0 60495 72900.00000 0 -1634234.503 21973609.462 -12859920.058 10 0 60495 73800.00000 0 -1953488.113 23360121.564 -10074127.368 10 0 60495 74700.00000 0 -2082222.067 24422548.248 -7092786.028 10 0 60495 75600.00000 0 -2063606.246 25122699.483 -3973794.275 10 0 60495 76500.00000 0 -1947298.718 25433970.208 -777697.304 10 0 60495 77400.00000 0 -1787098.243 25342435.545 2433487.328 10 0 60495 78300.00000 0 -1638424.670 24847434.186 5597471.213 10 0 60495 79200.00000 0 -1555734.168 23961616.063 8652900.185 10 0 60495 80100.00000 0 -1589978.743 22710452.736 11540539.691 10 0 60495 81000.00000 0 -1786217.451 21131231.293 14204417.709 10 0 60495 81900.00000 0 -2181480.169 19271573.990 16592903.486 10 0 60495 82800.00000 0 -2802974.106 17187545.356 18659701.724 10 0 60495 83700.00000 0 -3666708.775 14941425.485 20364743.642 10 0 60495 84600.00000 0 -4776597.767 12599241.729 21674958.403 10 0 60495 85500.00000 0 -6124075.741 10228160.869 22564910.610 10 0 60496 0.00000 0 -7688247.612 7893849.567 23017292.125 10 0 60496 900.00000 0 -9436565.933 5657910.595 23023259.182 10 0 60496 1800.00000 0 -11326007.560 3575503.558 22582607.846 10 0 60496 2700.00000 0 -13304704.923 1693243.917 21703785.021 10 0 60496 3600.00000 0 -15313963.488 47469.981 20403733.535 10 0 60496 4500.00000 0 -17290583.512 -1337051.881 18707573.823 10 0 60496 5400.00000 0 -19169390.364 -2447930.170 16648127.339 10 0 60496 6300.00000 0 -20885868.663 -3285426.204 14265289.812 10 0 60496 7200.00000 0 -22378790.605 -3862195.708 11605265.498 10 0 60496 8100.00000 0 -23592728.597 -4202505.202 8719676.363 10 0 60496 9000.00000 0 -24480346.562 -4340956.386 5664562.848 10 0 60496 9900.00000 0 -25004373.134 -4320772.652 2499295.341 10 0 60496 10800.00000 0 -25139172.963 -4191720.574 -714582.462 10 0 60496 11700.00000 0 -24871849.067 -4007754.924 -3914555.416 10 0 60496 12600.00000 0 -24202828.840 -3824487.801 -7038359.943 10 0 60496 13500.00000 0 -23145908.185 -3696590.104 -10025203.493 10 0 60496 14400.00000 0 -21727751.229 -3675236.651 -12816955.804 10 0 60496 15300.00000 0 -19986866.228 -3805704.426 -15359287.759 10 0 60496 16200.00000 0 -17972100.551 -4125226.902 -17602734.894 10 0 60496 17100.00000 0 -15740717.930 -4661196.412 -19503664.275 10 0 60496 18000.00000 0 -13356138.862 -5429791.609 -21025125.565 10 0 60496 18900.00000 0 -10885438.998 -6435088.857 -22137569.690 10 0 60496 19800.00000 0 -8396710.361 -7668695.775 -22819421.291 10 0 60496 20700.00000 0 -5956395.717 -9109922.977 -23057494.211 10 0 60496 21600.00000 0 -3626707.167 -10726487.213 -22847242.431 10 0 60496 22500.00000 0 -1463236.155 -12475716.800 -22192842.118 10 0 60496 23400.00000 0 487146.193 -14306209.011 -21107103.691 10 0 60496 24300.00000 0 2188011.975 -16159870.182 -19611216.118 10 0 60496 25200.00000 0 3614652.163 -17974253.271 -17734328.742 10 0 60496 26100.00000 0 4754853.385 -19685095.085 -15512979.089 10 0 60496 27000.00000 0 5609145.180 -21228947.106 -12990377.978 10 0 60496 27900.00000 0 6190509.281 -22545789.896 -10215565.990 10 0 60496 28800.00000 0 6523565.013 -23581521.719 -7242457.861 10 0 60496 29700.00000 0 6643266.800 -24290217.342 -4128793.498 10 0 60496 30600.00000 0 6593170.202 -24636062.583 -935016.140 10 0 60496 31500.00000 0 6423340.819 -24594883.809 2276900.382 10 0 60496 32400.00000 0 6187995.335 -24155208.551 5444652.416 10 0 60496 33300.00000 0 5942974.936 -23318813.093 8506811.980 10 0 60496 34200.00000 0 5743158.233 -22100734.315 11404013.639 10 0 60496 35100.00000 0 5639923.077 -20528745.413 14080099.993 10 0 60496 36000.00000 0 5678764.407 -18642317.384 16483204.011 10 0 60496 36900.00000 0 5897168.547 -16491109.454 18566747.745 10 0 60496 37800.00000 0 6322833.494 -14133050.955 20290338.790 10 0 60496 38700.00000 0 6972310.230 -11632093.918 21620547.845 10 0 60496 39600.00000 0 7850122.549 -9055729.050 22531553.032 10 0 60496 40500.00000 0 8948402.971 -6472367.357 23005639.072 10 0 60496 41400.00000 0 10247061.027 -3948695.030 23033542.026 10 0 60496 42300.00000 0 11714478.074 -1547110.357 22614633.042 10 0 60496 43200.00000 0 13308701.042 676652.024 21756937.314 10 0 60496 44100.00000 0 14979086.735 2675611.813 20476987.374 10 0 60496 45000.00000 0 16668329.431 4413262.539 18799512.753 10 0 60496 45900.00000 0 18314788.320 5864848.923 16756971.021 10 0 60496 46800.00000 0 19855018.456 7018149.352 14388928.214 10 0 60496 47700.00000 0 21226399.872 7873731.097 11741299.604 10 0 60496 48600.00000 0 22369754.884 8444667.917 8865464.647 10 0 60496 49500.00000 0 23231843.568 8755732.206 5817272.603 10 0 60496 50400.00000 0 23767631.929 8842095.995 2655957.874 10 0 60496 51300.00000 0 23942236.489 8747596.104 -557013.853 10 0 60496 52200.00000 0 23732462.348 8522637.295 -3759145.852 10 0 60496 53100.00000 0 23127868.728 8221822.939 -6888132.926 10 0 60496 54000.00000 0 22131315.995 7901414.419 -9883081.658 10 0 60496 54900.00000 0 20758970.093 7616727.989 -12685703.639 10 0 60496 55800.00000 0 19039763.400 7419580.465 -15241457.456 10 0 60496 56700.00000 0 17014334.120 7355893.052 -17500616.429 10 0 60496 57600.00000 0 14733488.407 7463555.805 -19419240.716 10 0 60496 58500.00000 0 12256249.616 7770643.919 -20960034.488 10 0 60496 59400.00000 0 9647576.354 8294061.998 -22093071.446 10 0 60496 60300.00000 0 6975844.793 9038674.080 -22796374.727 10 0 60496 61200.00000 0 4310200.380 9996956.500 -23056340.290 10 0 60496 62100.00000 0 1717889.244 11149188.473 -22867996.024 10 0 60496 63000.00000 0 -738319.870 12464172.556 -22235092.101 10 0 60496 63900.00000 0 -3002516.361 13900454.751 -21170021.335 10 0 60496 64800.00000 0 -5027733.002 15407993.071 -19693571.563 10 0 60496 65700.00000 0 -6777649.992 16930204.530 -17834515.250 10 0 60496 66600.00000 0 -8227848.238 18406304.633 -15629044.578 10 0 60496 67500.00000 0 -9366561.267 19773841.226 -13120063.222 10 0 60496 68400.00000 0 -10194896.182 20971316.381 -10356348.725 10 0 60496 69300.00000 0 -10726516.299 21940786.296 -7391601.921 10 0 60496 70200.00000 0 -10986800.653 22630330.159 -4283402.016 10 0 60496 71100.00000 0 -11011517.419 22996284.391 -1092087.752 10 0 60496 72000.00000 0 -10845068.580 23005148.576 2120413.423 10 0 60496 72900.00000 0 -10538381.025 22635083.194 5291785.348 10 0 60496 73800.00000 0 -10146533.916 21876936.389 8360529.001 10 0 60496 74700.00000 0 -9726223.032 20734756.785 11267150.839 10 0 60496 75600.00000 0 -9333169.324 19225770.779 13955310.836 10 0 60496 76500.00000 0 -9019581.076 17379825.082 16372908.360 10 0 60496 77400.00000 0 -8831776.512 15238317.411 18473085.393 10 0 60496 78300.00000 0 -8808066.828 12852659.392 20215128.318 10 0 60496 79200.00000 0 -8976988.577 10282334.874 21565251.607 10 0 60496 80100.00000 0 -9355959.745 7592633.509 22497248.864 10 0 60496 81000.00000 0 -9950416.177 4852152.606 22992999.288 10 0 60496 81900.00000 0 -10753465.110 2130169.750 23042820.104 10 0 60496 82800.00000 0 -11746071.172 -506006.042 22645658.256 10 0 60496 83700.00000 0 -12897768.109 -2993595.936 21809117.476 10 0 60496 84600.00000 0 -14167867.712 -5276720.470 20549319.666 10 0 60496 85500.00000 0 -15507116.630 -7308478.804 18890602.509 10 0 60497 0.00000 0 -16859732.814 -9052652.159 16865058.350 10 0 60497 900.00000 0 -18165738.034 -10484961.943 14511921.060 10 0 60497 1800.00000 0 -19363487.569 -11593828.150 11876814.484 10 0 60497 2700.00000 0 -20392293.649 -12380599.709 9010872.539 10 0 60497 3600.00000 0 -21195030.516 -12859244.981 5969749.969 10 0 60497 4500.00000 0 -21720611.727 -13055516.670 2812541.637 10 0 60497 5400.00000 0 -21926234.424 -13005626.516 -399368.453 10 0 60497 6300.00000 0 -21779294.851 -12754486.203 -3603505.702 10 0 60497 7200.00000 0 -21258893.075 -12353589.463 -6737526.979 10 0 60497 8100.00000 0 -20356862.119 -11858625.811 -9740441.586 10 0 60497 9000.00000 0 -19078276.853 -11326927.865 -12553806.396 10 0 60497 9900.00000 0 -17441420.099 -10814861.345 -15122870.896 10 0 60497 10800.00000 0 -15477206.442 -10375269.289 -17397649.066 10 0 60497 11700.00000 0 -13228087.299 -10055079.549 -19333896.596 10 0 60497 12600.00000 0 -10746482.743 -9893177.571 -20893974.078 10 0 60497 13500.00000 0 -8092805.471 -9918634.942 -22047579.279 10 0 60497 14400.00000 0 -5333159.389 -10149368.876 -22772334.449 10 0 60497 15300.00000 0 -2536808.787 -10591289.399 -23054217.578 10 0 60497 16200.00000 0 226476.583 -11237970.171 -22887829.712 10 0 60497 17100.00000 0 2889090.250 -12070856.699 -22276493.680 10 0 60497 18000.00000 0 5388161.000 -13060002.994 -21232182.807 10 0 60497 18900.00000 0 7667921.768 -14165305.434 -19775281.497 10 0 60497 19800.00000 0 9681777.892 -15338181.717 -17934182.679 10 0 60497 20700.00000 0 11393989.770 -16523624.078 -15744730.269 10 0 60497 21600.00000 0 12780901.272 -17662540.261 -13249517.660 10 0 60497 22500.00000 0 13831664.313 -18694283.673 -10497056.075 10 0 60497 23400.00000 0 14548431.024 -19559266.164 -7540829.081 10 0 60497 24300.00000 0 14946007.331 -20201543.522 -4438251.792 10 0 60497 25200.00000 0 15050984.231 -20571264.853 -1249555.122 10 0 60497 26100.00000 0 14900384.860 -20626882.822 1963383.053 10 0 60497 27000.00000 0 14539885.667 -20337031.820 5138237.043 10 0 60497 27900.00000 0 14021687.699 -19681995.078 8213439.471 10 0 60497 28800.00000 0 13402128.440 -18654699.025 11129371.029 10 0 60497 29700.00000 0 12739135.300 -17261193.014 13829511.010 10 0 60497 30600.00000 0 12089628.178 -15520593.948 16261526.730 10 0 60497 31500.00000 0 11506980.399 -13464497.644 18378281.217 10 0 60497 32400.00000 0 11038644.626 -11135880.784 20138740.364 10 0 60497 33300.00000 0 10724043.233 -8587538.298 21508762.723 10 0 60497 34200.00000 0 10592811.517 -5880120.109 22461757.319 10 0 60497 35100.00000 0 10663467.351 -3079847.569 22979197.412 10 0 60497 36000.00000 0 10942563.152 -256003.000 23050980.637 10 0 60497 36900.00000 0 11424356.087 2521704.883 22675628.700 10 0 60497 37800.00000 0 12091010.945 5185791.753 21860322.576 10 0 60497 38700.00000 0 12913328.033 7673555.928 20620772.030 10 0 60497 39600.00000 0 13851966.619 9929438.913 18980921.201 10 0 60497 40500.00000 0 14859113.622 11907090.959 16972494.978 10 0 60497 41400.00000 0 15880528.556 13571056.265 14634393.822 10 0 60497 42300.00000 0 16857879.539 14898007.905 12011947.741 10 0 60497 43200.00000 0 17731272.639 15877481.121 9156042.936 10 0 60497 44100.00000 0 18441868.148 16512074.446 6122137.360 10 0 60497 45000.00000 0 18934473.195 16817110.303 2969184.009 10 0 60497 45900.00000 0 19160000.670 16819769.637 -241517.161 10 0 60497 46800.00000 0 19077689.604 16557737.357 -3447516.015 10 0 60497 47700.00000 0 18656991.994 16077416.276 -6586433.754 10 0 60497 48600.00000 0 17879045.003 15431785.713 -9597184.529 10 0 60497 49500.00000 0 16737664.945 14677996.103 -12421172.433 10 0 60497 50400.00000 0 15239819.819 13874802.304 -15003439.590 10 0 60497 51300.00000 0 13405559.259 13079945.074 -17293742.139 10 0 60497 52200.00000 0 11267403.856 12347592.323 -19247532.613 10 0 60497 53100.00000 0 8869218.761 11725948.975 -20826829.143 10 0 60497 54000.00000 0 6264618.170 11255136.916 -22000954.526 10 0 60497 54900.00000 0 3514967.073 10965434.731 -22747130.938 10 0 60497 55800.00000 0 687063.427 10875951.514 -23050919.040 10 0 60497 56700.00000 0 -2149402.847 10993790.384 -22906493.468 10 0 60497 57600.00000 0 -4924508.522 11313736.594 -22316749.859 10 0 60497 58500.00000 0 -7570763.123 11818482.811 -21293241.873 10 0 60497 59400.00000 0 -10025672.058 12479381.552 -19855949.926 10 0 60497 60300.00000 0 -12234090.977 13257692.493 -18032886.477 10 0 60497 61200.00000 0 -14150274.337 14106271.645 -15859545.866 10 0 60497 62100.00000 0 -15739534.069 14971630.790 -13378209.590 10 0 60497 63000.00000 0 -16979440.581 15796280.059 -10637120.680 10 0 60497 63900.00000 0 -17860517.462 16521254.691 -7689543.379 10 0 60497 64800.00000 0 -18386402.523 17088719.245 -4592726.532 10 0 60497 65700.00000 0 -18573470.034 17444539.400 -1406790.968 10 0 60497 66600.00000 0 -18449931.641 17540712.837 1806437.332 10 0 60497 67500.00000 0 -18054455.125 17337556.715 4984625.518 10 0 60497 68400.00000 0 -17434360.295 16805559.545 8066140.268 10 0 60497 69300.00000 0 -16643468.812 15926819.395 10991238.958 10 0 60497 70200.00000 0 -15739699.040 14696007.768 13703222.677 10 0 60497 71100.00000 0 -14782507.350 13120818.276 16149529.146 10 0 60497 72000.00000 0 -13830283.498 11221880.777 18282744.861 10 0 60497 72900.00000 0 -12937809.269 9032143.749 20061517.541 10 0 60497 73800.00000 0 -12153886.699 6595749.652 21451351.968 10 0 60497 74700.00000 0 -11519234.939 3966448.932 22425274.521 10 0 60497 75600.00000 0 -11064743.507 1205617.208 22964354.169 10 0 60497 76500.00000 0 -10810154.851 -1620043.483 23058070.263 10 0 60497 77400.00000 0 -10763231.305 -4441025.531 22704520.174 10 0 60497 78300.00000 0 -10919441.492 -7187655.585 21910462.577 10 0 60497 79200.00000 0 -11262179.738 -9792745.278 20691195.060 10 0 60497 80100.00000 0 -11763509.863 -12194143.904 19070267.682 10 0 60497 81000.00000 0 -12385402.923 -14337087.948 17079036.995 10 0 60497 81900.00000 0 -13081417.664 -16176250.349 14756068.119 10 0 60497 82800.00000 0 -13798753.712 -17677404.443 12146395.363 10 0 60497 83700.00000 0 -14480591.538 -18818633.277 9300654.771 10 0 60497 84600.00000 0 -15068620.744 -19591033.735 6274104.749 10 0 60497 85500.00000 0 -15505649.801 -19998885.898 3125553.399 99